| time (UTC) | temp F | wind direction | speed MPH | gust MPH | rain 1hr in | rain 24hr in | rain mn in | humidity % | barometer mb |
| 20260510071138 | 65 | 68 | 1.0 | 4.0 | 0.00 | 0.00 | 0.00 | 82 | 1015.5 |
| 20260510070737 | 65 | 45 | 5.0 | 8.0 | 0.00 | 0.00 | 0.00 | 82 | 1015.5 |
| 20260510070542 | 65 | 68 | 3.0 | 6.0 | 0.00 | 0.00 | 0.00 | 82 | 1015.6 |
| 20260510070339 | 65 | 45 | 4.0 | 6.0 | 0.00 | 0.00 | 0.00 | 83 | 1015.5 |
| 20260510065336 | 65 | 22 | 3.0 | 4.0 | 0.00 | 0.00 | 0.00 | 84 | 1015.6 |
| 20260510065138 | 64 | 22 | 4.0 | 6.0 | 0.00 | 0.00 | 0.00 | 84 | 1015.5 |
| 20260510064939 | 64 | 22 | 3.0 | 6.0 | 0.00 | 0.00 | 0.00 | 84 | 1015.6 |
| 20260510064739 | 65 | 68 | 4.0 | 8.0 | 0.00 | 0.00 | 0.00 | 84 | 1015.5 |
| 20260510064544 | 65 | 22 | 4.0 | 8.0 | 0.00 | 0.00 | 0.00 | 84 | 1015.5 |
| 20260510064337 | 64 | 22 | 3.0 | 6.0 | 0.00 | 0.00 | 0.00 | 84 | 1015.6 |
| 20260510064139 | 64 | 0 | 3.0 | 4.0 | 0.00 | 0.00 | 0.00 | 84 | 1015.6 |
| 20260510063739 | 64 | 68 | 2.0 | 4.0 | 0.00 | 0.00 | 0.00 | 85 | 1015.6 |
| 20260510063542 | 64 | 0 | 4.0 | 6.0 | 0.00 | 0.00 | 0.00 | 86 | 1015.7 |
| 20260510063338 | 64 | 22 | 3.0 | 8.0 | 0.00 | 0.00 | 0.00 | 86 | 1015.6 |
| 20260510062737 | 63 | 315 | 2.0 | 2.0 | 0.00 | 0.00 | 0.00 | 88 | 1015.8 |
| 20260510062544 | 63 | 22 | 2.0 | 4.0 | 0.00 | 0.00 | 0.00 | 88 | 1015.9 |
| 20260510062138 | 62 | 22 | 1.0 | 2.0 | 0.00 | 0.00 | 0.00 | 89 | 1015.7 |
| 20260510061938 | 62 | 45 | 2.0 | 4.0 | 0.00 | 0.00 | 0.00 | 89 | 1015.7 |
| 20260510061737 | 62 | 22 | 2.0 | 4.0 | 0.00 | 0.00 | 0.00 | 89 | 1015.7 |
| 20260510061544 | 62 | 22 | 2.0 | 4.0 | 0.00 | 0.00 | 0.00 | 89 | 1015.8 |
| 20260510061338 | 62 | 22 | 2.0 | 4.0 | 0.00 | 0.00 | 0.00 | 89 | 1015.6 |
| 20260510061138 | 62 | 68 | 2.0 | 4.0 | 0.00 | 0.00 | 0.00 | 89 | 1015.7 |
| 20260510060936 | 62 | 22 | 2.0 | 4.0 | 0.00 | 0.00 | 0.00 | 89 | 1015.7 |
| 20260510060544 | 62 | 315 | 0.0 | 2.0 | 0.00 | 0.00 | 0.00 | 90 | 1015.7 |
| 20260510060338 | 62 | 315 | 0.0 | 2.0 | 0.00 | 0.00 | 0.00 | 90 | 1015.6 |
| 20260510060137 | 62 | 315 | 0.0 | 2.0 | 0.00 | 0.00 | 0.00 | 90 | 1016.0 |
| 20260510055938 | 62 | 338 | 0.0 | 2.0 | 0.00 | 0.00 | 0.00 | 90 | 1016.0 |
| 20260510055738 | 62 | 315 | 0.0 | 0.0 | 0.00 | 0.00 | 0.00 | 90 | 1015.7 |
| 20260510055544 | 61 | 315 | 0.0 | 0.0 | 0.00 | 0.00 | 0.00 | 90 | 1015.9 |
| 20260510055338 | 61 | 315 | 0.0 | 0.0 | 0.00 | 0.00 | 0.00 | 90 | 1016.0 |
| 20260510055137 | 61 | 315 | 0.0 | 0.0 | 0.00 | 0.00 | 0.00 | 90 | 1015.9 |
| 20260510054938 | 61 | 315 | 0.0 | 0.0 | 0.00 | 0.00 | 0.00 | 90 | 1016.0 |
| 20260510054738 | 61 | 315 | 0.0 | 0.0 | 0.00 | 0.00 | 0.00 | 90 | 1016.0 |
| 20260510054546 | 61 | 45 | 0.0 | 0.0 | 0.00 | 0.00 | 0.00 | 90 | 1015.8 |
| 20260510054159 | 61 | 112 | 0.0 | 2.0 | 0.00 | 0.00 | 0.00 | 90 | 1015.7 |
| 20260510053937 | 60 | 90 | 1.0 | 2.0 | 0.00 | 0.00 | 0.00 | 90 | 1015.6 |
| 20260510053340 | 60 | 22 | 0.0 | 2.0 | 0.00 | 0.00 | 0.00 | 90 | 1015.7 |
| 20260510053137 | 60 | 22 | 1.0 | 2.0 | 0.00 | 0.00 | 0.00 | 90 | 1015.6 |
| 20260510052939 | 60 | 0 | 0.0 | 0.0 | 0.00 | 0.00 | 0.00 | 90 | 1015.5 |
| 20260510052738 | 60 | 315 | 2.0 | 2.0 | 0.00 | 0.00 | 0.00 | 89 | 1015.5 |
| 20260510052546 | 60 | 338 | 1.0 | 2.0 | 0.00 | 0.00 | 0.00 | 89 | 1015.4 |
| 20260510052338 | 60 | 0 | 0.0 | 2.0 | 0.00 | 0.00 | 0.00 | 89 | 1015.4 |
| 20260510052138 | 60 | 45 | 2.0 | 4.0 | 0.00 | 0.00 | 0.00 | 89 | 1015.0 |
| 20260510051938 | 60 | 22 | 3.0 | 4.0 | 0.00 | 0.00 | 0.00 | 89 | 1015.2 |
| 20260510051738 | 60 | 0 | 3.0 | 4.0 | 0.00 | 0.00 | 0.00 | 89 | 1015.2 |
| 20260510051546 | 60 | 45 | 2.0 | 4.0 | 0.00 | 0.00 | 0.00 | 89 | 1015.2 |
| 20260510051337 | 60 | 315 | 2.0 | 4.0 | 0.00 | 0.00 | 0.00 | 89 | 1015.4 |
| 20260510051140 | 60 | 338 | 4.0 | 7.0 | 0.00 | 0.00 | 0.00 | 89 | 1015.5 |
| 20260510050937 | 60 | 338 | 2.0 | 4.0 | 0.00 | 0.00 | 0.00 | 89 | 1015.5 |
| 20260510050738 | 60 | 315 | 4.0 | 7.0 | 0.00 | 0.00 | 0.00 | 89 | 1015.2 |
| 20260510050542 | 60 | 0 | 4.0 | 6.0 | 0.00 | 0.00 | 0.00 | 89 | 1014.9 |
| 20260510050338 | 60 | 0 | 2.0 | 6.0 | 0.00 | 0.00 | 0.00 | 88 | 1014.5 |
| 20260510050139 | 60 | 22 | 2.0 | 6.0 | 0.00 | 0.00 | 0.00 | 88 | 1014.4 |
| 20260510045938 | 60 | 45 | 2.0 | 4.0 | 0.00 | 0.00 | 0.00 | 88 | 1014.7 |
| 20260510045545 | 60 | 0 | 2.0 | 4.0 | 0.00 | 0.00 | 0.00 | 88 | 1014.7 |
| 20260510045339 | 60 | 0 | 2.0 | 4.0 | 0.00 | 0.00 | 0.00 | 88 | 1014.9 |
| 20260510045139 | 60 | 22 | 2.0 | 4.0 | 0.00 | 0.00 | 0.00 | 88 | 1015.2 |
| 20260510044938 | 60 | 22 | 1.0 | 4.0 | 0.00 | 0.00 | 0.00 | 88 | 1015.2 |
| 20260510044740 | 60 | 22 | 1.0 | 2.0 | 0.00 | 0.00 | 0.00 | 88 | 1015.0 |
| 20260510044600 | 60 | 22 | 2.0 | 4.0 | 0.00 | 0.00 | 0.00 | 88 | 1014.9 |
| 20260510043938 | 60 | 68 | 3.0 | 4.0 | 0.00 | 0.00 | 0.00 | 88 | 1015.1 |
| 20260510043738 | 60 | 90 | 2.0 | 2.0 | 0.00 | 0.00 | 0.00 | 88 | 1015.2 |
| 20260510043543 | 60 | 90 | 2.0 | 4.0 | 0.00 | 0.00 | 0.00 | 87 | 1015.3 |
| 20260510043338 | 60 | 68 | 1.0 | 2.0 | 0.00 | 0.00 | 0.00 | 87 | 1015.2 |
| 20260510043139 | 60 | 45 | 3.0 | 4.0 | 0.00 | 0.00 | 0.00 | 87 | 1015.6 |
| 20260510042938 | 60 | 45 | 2.0 | 4.0 | 0.00 | 0.00 | 0.00 | 87 | 1015.4 |
| 20260510042740 | 60 | 68 | 4.0 | 6.0 | 0.00 | 0.00 | 0.00 | 87 | 1015.5 |
| 20260510042547 | 60 | 68 | 3.0 | 4.0 | 0.00 | 0.00 | 0.00 | 86 | 1015.7 |
| 20260510042139 | 60 | 22 | 0.0 | 2.0 | 0.00 | 0.00 | 0.00 | 86 | 1015.8 |
| 20260510041940 | 60 | 112 | 0.0 | 0.0 | 0.00 | 0.00 | 0.00 | 86 | 1015.8 |
| 20260510041739 | 60 | 112 | 2.0 | 2.0 | 0.00 | 0.00 | 0.00 | 86 | 1015.7 |
| 20260510041339 | 60 | 90 | 1.0 | 2.0 | 0.00 | 0.00 | 0.00 | 85 | 1015.8 |
| 20260510041138 | 60 | 0 | 0.0 | 2.0 | 0.00 | 0.00 | 0.00 | 85 | 1015.9 |
| 20260510040938 | 60 | 315 | 0.0 | 2.0 | 0.00 | 0.00 | 0.00 | 85 | 1016.0 |
| 20260510040739 | 61 | 90 | 1.0 | 2.0 | 0.00 | 0.00 | 0.00 | 85 | 1016.1 |
| 20260510040542 | 60 | 68 | 2.0 | 2.0 | 0.00 | 0.00 | 0.00 | 85 | 1016.1 |
| 20260510035938 | 61 | 45 | 1.0 | 2.0 | 0.00 | 0.00 | 0.00 | 84 | 1016.3 |
| 20260510035737 | 61 | 22 | 0.0 | 0.0 | 0.00 | 0.00 | 0.00 | 84 | 1016.2 |
| 20260510035546 | 61 | 292 | 0.0 | 2.0 | 0.00 | 0.00 | 0.00 | 84 | 1016.4 |
| 20260510035338 | 61 | 292 | 0.0 | 0.0 | 0.00 | 0.00 | 0.00 | 84 | 1016.2 |
| 20260510035138 | 61 | 112 | 1.0 | 2.0 | 0.00 | 0.00 | 0.00 | 84 | 1016.4 |
| 20260510034937 | 61 | 112 | 2.0 | 2.0 | 0.00 | 0.00 | 0.00 | 84 | 1016.3 |
| 20260510034737 | 60 | 22 | 0.0 | 2.0 | 0.00 | 0.00 | 0.00 | 84 | 1016.3 |
| 20260510034545 | 60 | 270 | 0.0 | 0.0 | 0.00 | 0.00 | 0.00 | 84 | 1016.6 |
| 20260510034338 | 61 | 248 | 0.0 | 0.0 | 0.00 | 0.00 | 0.00 | 83 | 1016.4 |
| 20260510034137 | 60 | 248 | 0.0 | 0.0 | 0.00 | 0.00 | 0.00 | 84 | 1016.6 |
| 20260510033939 | 60 | 248 | 0.0 | 0.0 | 0.00 | 0.00 | 0.00 | 83 | 1016.5 |
| 20260510033738 | 60 | 248 | 0.0 | 0.0 | 0.00 | 0.00 | 0.00 | 83 | 1016.5 |
| 20260510033342 | 60 | 248 | 0.0 | 0.0 | 0.00 | 0.00 | 0.00 | 83 | 1016.7 |
| 20260510033139 | 60 | 270 | 1.0 | 2.0 | 0.00 | 0.00 | 0.00 | 83 | 1016.6 |
| 20260510032939 | 60 | 270 | 0.0 | 0.0 | 0.00 | 0.00 | 0.00 | 83 | 1016.5 |
| 20260510032738 | 60 | 270 | 0.0 | 0.0 | 0.00 | 0.00 | 0.00 | 83 | 1016.4 |
| 20260510032337 | 60 | 270 | 2.0 | 2.0 | 0.00 | 0.00 | 0.00 | 84 | 1016.7 |
| 20260510032138 | 60 | 270 | 1.0 | 2.0 | 0.00 | 0.00 | 0.00 | 84 | 1016.6 |
| 20260510031937 | 60 | 248 | 1.0 | 2.0 | 0.00 | 0.00 | 0.00 | 84 | 1016.8 |
| 20260510031738 | 60 | 248 | 2.0 | 2.0 | 0.00 | 0.00 | 0.00 | 84 | 1016.9 |
| 20260510031545 | 60 | 270 | 2.0 | 2.0 | 0.00 | 0.00 | 0.00 | 84 | 1016.6 |
| 20260510031337 | 60 | 270 | 1.0 | 2.0 | 0.00 | 0.00 | 0.00 | 85 | 1016.8 |
| 20260510031139 | 60 | 270 | 2.0 | 4.0 | 0.00 | 0.00 | 0.00 | 85 | 1016.8 |
| 20260510030939 | 60 | 270 | 2.0 | 4.0 | 0.00 | 0.00 | 0.00 | 85 | 1016.9 |
| 20260510030737 | 59 | 270 | 3.0 | 4.0 | 0.00 | 0.00 | 0.00 | 86 | 1016.9 |
| 20260510030546 | 59 | 270 | 3.0 | 4.0 | 0.00 | 0.00 | 0.00 | 87 | 1016.9 |
| 20260510030338 | 59 | 248 | 3.0 | 4.0 | 0.00 | 0.00 | 0.00 | 88 | 1016.8 |
| 20260510030138 | 59 | 270 | 3.0 | 6.0 | 0.00 | 0.00 | 0.00 | 89 | 1016.9 |
| 20260510025938 | 59 | 270 | 4.0 | 6.0 | 0.00 | 0.00 | 0.00 | 90 | 1016.7 |
| 20260510025738 | 59 | 270 | 4.0 | 7.0 | 0.00 | 0.00 | 0.00 | 90 | 1016.7 |
| 20260510025544 | 59 | 270 | 3.0 | 4.0 | 0.00 | 0.00 | 0.00 | 90 | 1016.8 |
| 20260510025338 | 59 | 270 | 2.0 | 4.0 | 0.00 | 0.00 | 0.00 | 91 | 1016.7 |
| 20260510025138 | 59 | 270 | 1.0 | 2.0 | 0.00 | 0.00 | 0.00 | 91 | 1016.6 |
| 20260510024738 | 59 | 270 | 2.0 | 2.0 | 0.00 | 0.00 | 0.00 | 91 | 1016.7 |
| 20260510024544 | 59 | 248 | 3.0 | 4.0 | 0.00 | 0.00 | 0.00 | 91 | 1016.9 |
| 20260510024339 | 59 | 292 | 2.0 | 4.0 | 0.00 | 0.00 | 0.00 | 91 | 1016.8 |
| 20260510024138 | 59 | 292 | 3.0 | 4.0 | 0.00 | 0.00 | 0.00 | 91 | 1016.8 |
| 20260510023938 | 59 | 270 | 3.0 | 4.0 | 0.00 | 0.00 | 0.00 | 91 | 1016.9 |
| 20260510023739 | 59 | 270 | 3.0 | 4.0 | 0.00 | 0.00 | 0.00 | 91 | 1016.9 |
| 20260510023541 | 59 | 292 | 2.0 | 4.0 | 0.00 | 0.00 | 0.00 | 91 | 1016.9 |
| 20260510023337 | 59 | 292 | 4.0 | 7.0 | 0.00 | 0.00 | 0.00 | 92 | 1016.8 |
| 20260510023136 | 59 | 248 | 4.0 | 4.0 | 0.00 | 0.00 | 0.00 | 91 | 1016.6 |
| 20260510022937 | 59 | 202 | 2.0 | 2.0 | 0.00 | 0.00 | 0.00 | 92 | 1016.7 |
| 20260510022739 | 59 | 225 | 3.0 | 4.0 | 0.00 | 0.00 | 0.00 | 92 | 1016.4 |
| 20260510022544 | 59 | 202 | 3.0 | 4.0 | 0.00 | 0.00 | 0.00 | 92 | 1016.3 |
| 20260510022339 | 59 | 248 | 1.0 | 2.0 | 0.00 | 0.00 | 0.00 | 92 | 1016.4 |
| 20260510021738 | 58 | 270 | 2.0 | 2.0 | 0.00 | 0.00 | 0.00 | 92 | 1016.2 |
| 20260510021545 | 58 | 270 | 1.0 | 2.0 | 0.00 | 0.00 | 0.00 | 92 | 1016.1 |
| 20260510021338 | 58 | 270 | 1.0 | 2.0 | 0.00 | 0.00 | 0.00 | 92 | 1015.9 |
| 20260510020736 | 58 | 315 | 2.0 | 4.0 | 0.00 | 0.00 | 0.00 | 92 | 1015.7 |
| 20260510020541 | 58 | 315 | 1.0 | 2.0 | 0.00 | 0.00 | 0.00 | 92 | 1015.5 |
| 20260510020339 | 58 | 338 | 1.0 | 2.0 | 0.00 | 0.00 | 0.00 | 92 | 1015.4 |
| 20260510020137 | 58 | 0 | 1.0 | 2.0 | 0.00 | 0.00 | 0.00 | 92 | 1015.3 |
| 20260510015939 | 58 | 45 | 2.0 | 2.0 | 0.00 | 0.00 | 0.00 | 92 | 1015.3 |
| 20260510015544 | 58 | 315 | 0.0 | 2.0 | 0.00 | 0.00 | 0.00 | 92 | 1015.8 |
| 20260510015337 | 58 | 315 | 0.0 | 2.0 | 0.00 | 0.00 | 0.00 | 92 | 1015.9 |
| 20260510014938 | 58 | 315 | 2.0 | 4.0 | 0.00 | 0.00 | 0.00 | 92 | 1016.1 |
| 20260510014738 | 58 | 292 | 2.0 | 4.0 | 0.00 | 0.00 | 0.00 | 92 | 1016.2 |
| 20260510014547 | 58 | 292 | 2.0 | 2.0 | 0.00 | 0.00 | 0.00 | 92 | 1016.1 |
| 20260510014337 | 58 | 292 | 2.0 | 4.0 | 0.00 | 0.00 | 0.00 | 92 | 1016.2 |
| 20260510014138 | 58 | 315 | 2.0 | 4.0 | 0.00 | 0.00 | 0.00 | 92 | 1016.1 |
| 20260510013938 | 58 | 292 | 2.0 | 4.0 | 0.00 | 0.00 | 0.00 | 92 | 1016.2 |
| 20260510013738 | 58 | 315 | 2.0 | 4.0 | 0.00 | 0.00 | 0.00 | 92 | 1016.2 |
| 20260510013542 | 58 | 292 | 2.0 | 2.0 | 0.00 | 0.00 | 0.00 | 92 | 1016.0 |
| 20260510013337 | 58 | 315 | 2.0 | 4.0 | 0.00 | 0.00 | 0.00 | 92 | 1016.0 |
| 20260510013137 | 58 | 292 | 3.0 | 4.0 | 0.00 | 0.00 | 0.00 | 92 | 1016.1 |
| 20260510012940 | 58 | 315 | 2.0 | 4.0 | 0.00 | 0.00 | 0.00 | 92 | 1016.1 |
| 20260510012737 | 58 | 292 | 1.0 | 2.0 | 0.00 | 0.00 | 0.00 | 92 | 1015.9 |
| 20260510012545 | 58 | 315 | 1.0 | 2.0 | 0.00 | 0.00 | 0.00 | 92 | 1015.9 |
| 20260510012338 | 58 | 292 | 2.0 | 2.0 | 0.00 | 0.00 | 0.00 | 92 | 1016.0 |
| 20260510012139 | 58 | 292 | 2.0 | 2.0 | 0.00 | 0.00 | 0.00 | 92 | 1015.9 |
| 20260510011938 | 58 | 292 | 2.0 | 2.0 | 0.00 | 0.00 | 0.00 | 92 | 1016.0 |
| 20260510011738 | 58 | 292 | 2.0 | 4.0 | 0.00 | 0.00 | 0.00 | 92 | 1016.1 |
| 20260510011546 | 58 | 292 | 2.0 | 4.0 | 0.00 | 0.00 | 0.00 | 92 | 1016.1 |
| 20260510011340 | 58 | 292 | 2.0 | 4.0 | 0.00 | 0.00 | 0.00 | 92 | 1016.1 |
| 20260510011139 | 58 | 292 | 2.0 | 2.0 | 0.00 | 0.00 | 0.00 | 92 | 1015.8 |
| 20260510010939 | 58 | 292 | 2.0 | 2.0 | 0.00 | 0.00 | 0.00 | 92 | 1016.1 |
| 20260510010738 | 58 | 292 | 2.0 | 2.0 | 0.00 | 0.00 | 0.00 | 92 | 1016.0 |
| 20260510010541 | 58 | 292 | 1.0 | 2.0 | 0.00 | 0.00 | 0.00 | 92 | 1016.0 |
| 20260510010339 | 58 | 292 | 0.0 | 0.0 | 0.00 | 0.00 | 0.00 | 92 | 1015.9 |
| 20260510010138 | 58 | 292 | 0.0 | 0.0 | 0.00 | 0.00 | 0.00 | 92 | 1015.8 |
| 20260510005937 | 58 | 292 | 2.0 | 2.0 | 0.00 | 0.00 | 0.00 | 92 | 1015.8 |
| 20260510005738 | 58 | 292 | 2.0 | 2.0 | 0.00 | 0.00 | 0.00 | 92 | 1015.9 |
| 20260510005338 | 58 | 315 | 2.0 | 2.0 | 0.00 | 0.00 | 0.00 | 92 | 1015.6 |
| 20260510005137 | 58 | 315 | 0.0 | 0.0 | 0.00 | 0.00 | 0.00 | 92 | 1015.5 |
| 20260510004938 | 58 | 315 | 0.0 | 0.0 | 0.00 | 0.00 | 0.00 | 92 | 1015.7 |
| 20260510004738 | 58 | 315 | 0.0 | 0.0 | 0.00 | 0.00 | 0.00 | 92 | 1015.7 |
| 20260510004338 | 58 | 315 | 0.0 | 0.0 | 0.00 | 0.00 | 0.00 | 92 | 1015.7 |
| 20260510004138 | 58 | 315 | 1.0 | 2.0 | 0.00 | 0.00 | 0.00 | 92 | 1015.5 |
| 20260510003737 | 58 | 315 | 0.0 | 0.0 | 0.00 | 0.00 | 0.00 | 92 | 1015.6 |
| 20260510003543 | 58 | 315 | 2.0 | 2.0 | 0.00 | 0.00 | 0.00 | 92 | 1015.7 |
| 20260510003337 | 58 | 315 | 1.0 | 2.0 | 0.00 | 0.00 | 0.00 | 92 | 1015.7 |
| 20260510003139 | 58 | 315 | 0.0 | 0.0 | 0.00 | 0.00 | 0.00 | 92 | 1015.8 |
| 20260510002938 | 58 | 315 | 1.0 | 2.0 | 0.00 | 0.00 | 0.00 | 92 | 1016.0 |
| 20260510002738 | 58 | 315 | 0.0 | 0.0 | 0.00 | 0.00 | 0.00 | 92 | 1016.0 |
| 20260510002337 | 58 | 315 | 1.0 | 2.0 | 0.00 | 0.00 | 0.00 | 92 | 1016.0 |
| 20260510002138 | 58 | 315 | 0.0 | 2.0 | 0.00 | 0.00 | 0.00 | 92 | 1016.0 |
| 20260510001337 | 58 | 315 | 2.0 | 2.0 | 0.00 | 0.00 | 0.00 | 91 | 1016.0 |
| 20260510001139 | 58 | 292 | 1.0 | 2.0 | 0.00 | 0.00 | 0.00 | 91 | 1016.1 |
| 20260510000937 | 58 | 315 | 0.0 | 2.0 | 0.00 | 0.00 | 0.00 | 91 | 1016.0 |
| 20260510000738 | 59 | 315 | 0.0 | 2.0 | 0.00 | 0.00 | 0.00 | 91 | 1015.6 |
| 20260510000542 | 59 | 292 | 2.0 | 2.0 | 0.00 | 0.00 | 0.00 | 91 | 1015.8 |
| 20260510000140 | 59 | 292 | 2.0 | 2.0 | 0.00 | 0.00 | 0.00 | 91 | 1015.8 |
| 20260509235938 | 59 | 315 | 0.0 | 2.0 | 0.00 | 0.00 | 0.00 | 91 | 1015.8 |
| 20260509235738 | 59 | 315 | 1.0 | 2.0 | 0.00 | 0.00 | 0.00 | 91 | 1015.8 |
| 20260509235544 | 59 | 338 | 0.0 | 0.0 | 0.00 | 0.00 | 0.00 | 91 | 1015.6 |
| 20260509234937 | 59 | 338 | 0.0 | 0.0 | 0.00 | 0.00 | 0.00 | 91 | 1015.4 |
| 20260509234738 | 59 | 338 | 0.0 | 2.0 | 0.00 | 0.00 | 0.00 | 91 | 1015.8 |
| 20260509234545 | 59 | 315 | 2.0 | 2.0 | 0.00 | 0.00 | 0.00 | 91 | 1015.9 |
| 20260509234339 | 59 | 315 | 2.0 | 2.0 | 0.00 | 0.00 | 0.00 | 91 | 1015.8 |
| 20260509234139 | 59 | 315 | 0.0 | 0.0 | 0.00 | 0.00 | 0.00 | 91 | 1015.8 |
| 20260509233938 | 59 | 315 | 0.0 | 2.0 | 0.00 | 0.00 | 0.00 | 91 | 1016.0 |
| 20260509233738 | 59 | 338 | 0.0 | 0.0 | 0.00 | 0.00 | 0.00 | 91 | 1015.9 |
| 20260509233542 | 59 | 315 | 0.0 | 0.0 | 0.00 | 0.00 | 0.00 | 91 | 1016.0 |
| 20260509233337 | 59 | 315 | 0.0 | 2.0 | 0.00 | 0.00 | 0.00 | 91 | 1016.1 |
| 20260509233144 | 59 | 315 | 1.0 | 2.0 | 0.00 | 0.00 | 0.00 | 91 | 1016.0 |
| 20260509232738 | 59 | 315 | 1.0 | 2.0 | 0.00 | 0.00 | 0.00 | 90 | 1015.9 |
| 20260509232547 | 59 | 315 | 1.0 | 2.0 | 0.00 | 0.00 | 0.00 | 90 | 1016.0 |
| 20260509232338 | 59 | 315 | 0.0 | 2.0 | 0.00 | 0.00 | 0.00 | 90 | 1016.1 |
| 20260509232138 | 59 | 338 | 0.0 | 0.0 | 0.00 | 0.00 | 0.00 | 90 | 1016.1 |
| 20260509231938 | 59 | 338 | 0.0 | 0.0 | 0.00 | 0.00 | 0.00 | 90 | 1016.2 |
| 20260509231739 | 60 | 338 | 0.0 | 2.0 | 0.00 | 0.00 | 0.00 | 90 | 1016.3 |
| 20260509231337 | 60 | 315 | 0.0 | 0.0 | 0.00 | 0.00 | 0.00 | 90 | 1016.3 |
| 20260509231138 | 60 | 315 | 0.0 | 2.0 | 0.00 | 0.00 | 0.00 | 90 | 1016.3 |
| 20260509230938 | 60 | 315 | 0.0 | 0.0 | 0.00 | 0.00 | 0.00 | 90 | 1016.3 |
| 20260509230736 | 59 | 0 | 0.0 | 0.0 | 0.00 | 0.00 | 0.00 | 90 | 1016.5 |
| 20260509230543 | 59 | 315 | 0.0 | 0.0 | 0.00 | 0.00 | 0.00 | 90 | 1016.5 |
| 20260509230338 | 60 | 315 | 0.0 | 0.0 | 0.00 | 0.00 | 0.00 | 90 | 1016.5 |
| 20260509230138 | 60 | 292 | 0.0 | 0.0 | 0.00 | 0.00 | 0.00 | 90 | 1016.6 |
| 20260509225937 | 60 | 292 | 0.0 | 0.0 | 0.00 | 0.00 | 0.00 | 90 | 1016.6 |
| 20260509225739 | 60 | 315 | 0.0 | 0.0 | 0.00 | 0.00 | 0.00 | 90 | 1016.7 |
| 20260509225544 | 60 | 315 | 1.0 | 2.0 | 0.00 | 0.00 | 0.00 | 90 | 1016.7 |
| 20260509225338 | 60 | 338 | 1.0 | 2.0 | 0.00 | 0.00 | 0.00 | 90 | 1016.7 |
| 20260509225138 | 60 | 315 | 1.0 | 2.0 | 0.00 | 0.00 | 0.00 | 90 | 1016.7 |
| 20260509224939 | 60 | 315 | 0.0 | 2.0 | 0.00 | 0.00 | 0.00 | 90 | 1016.6 |
| 20260509224546 | 60 | 315 | 2.0 | 2.0 | 0.00 | 0.00 | 0.00 | 90 | 1016.7 |
| 20260509224338 | 60 | 315 | 0.0 | 0.0 | 0.00 | 0.00 | 0.00 | 90 | 1016.4 |
| 20260509224137 | 60 | 315 | 1.0 | 2.0 | 0.00 | 0.00 | 0.00 | 90 | 1016.5 |
| 20260509223737 | 60 | 292 | 2.0 | 2.0 | 0.00 | 0.00 | 0.00 | 90 | 1016.4 |
| 20260509223543 | 60 | 315 | 0.0 | 0.0 | 0.00 | 0.00 | 0.00 | 89 | 1016.1 |
| 20260509223338 | 60 | 292 | 0.0 | 0.0 | 0.00 | 0.00 | 0.00 | 89 | 1016.1 |
| 20260509223142 | 60 | 292 | 0.0 | 0.0 | 0.00 | 0.00 | 0.00 | 89 | 1016.2 |
| 20260509222938 | 60 | 338 | 0.0 | 0.0 | 0.00 | 0.00 | 0.00 | 89 | 1016.4 |
| 20260509222738 | 60 | 338 | 0.0 | 0.0 | 0.00 | 0.00 | 0.00 | 89 | 1016.2 |
| 20260509222138 | 60 | 0 | 0.0 | 0.0 | 0.00 | 0.00 | 0.00 | 89 | 1016.2 |
| 20260509221938 | 60 | 0 | 0.0 | 0.0 | 0.00 | 0.00 | 0.00 | 89 | 1016.3 |
| 20260509221737 | 60 | 0 | 0.0 | 0.0 | 0.00 | 0.00 | 0.00 | 89 | 1016.1 |
| 20260509221544 | 60 | 315 | 0.0 | 0.0 | 0.00 | 0.00 | 0.00 | 89 | 1016.3 |
| 20260509221338 | 60 | 315 | 0.0 | 0.0 | 0.00 | 0.00 | 0.00 | 89 | 1016.4 |
| 20260509221138 | 60 | 338 | 0.0 | 2.0 | 0.00 | 0.00 | 0.00 | 89 | 1016.3 |
| 20260509220736 | 60 | 315 | 0.0 | 2.0 | 0.00 | 0.00 | 0.00 | 89 | 1016.5 |
| 20260509220339 | 60 | 338 | 1.0 | 2.0 | 0.00 | 0.00 | 0.00 | 89 | 1016.3 |
| 20260509220158 | 60 | 315 | 0.0 | 2.0 | 0.00 | 0.00 | 0.00 | 89 | 1016.4 |
| 20260509215546 | 60 | 315 | 0.0 | 2.0 | 0.00 | 0.00 | 0.00 | 88 | 1016.3 |
| 20260509215137 | 60 | 0 | 0.0 | 2.0 | 0.00 | 0.00 | 0.00 | 88 | 1016.4 |
| 20260509214938 | 60 | 338 | 0.0 | 0.0 | 0.00 | 0.00 | 0.00 | 88 | 1016.5 |
| 20260509214737 | 60 | 0 | 0.0 | 0.0 | 0.00 | 0.00 | 0.00 | 88 | 1016.5 |
| 20260509214545 | 60 | 0 | 0.0 | 0.0 | 0.00 | 0.00 | 0.00 | 88 | 1016.6 |
| 20260509214338 | 60 | 22 | 1.0 | 2.0 | 0.00 | 0.00 | 0.00 | 88 | 1016.6 |
| 20260509214138 | 60 | 338 | 0.0 | 2.0 | 0.00 | 0.00 | 0.00 | 88 | 1016.5 |
| 20260509213737 | 60 | 0 | 1.0 | 2.0 | 0.00 | 0.00 | 0.00 | 88 | 1016.3 |
| 20260509213543 | 60 | 22 | 1.0 | 2.0 | 0.00 | 0.00 | 0.00 | 88 | 1016.4 |
| 20260509213342 | 60 | 338 | 1.0 | 2.0 | 0.00 | 0.00 | 0.00 | 88 | 1016.5 |
| 20260509213139 | 60 | 315 | 2.0 | 2.0 | 0.00 | 0.00 | 0.00 | 88 | 1016.5 |
| 20260509212938 | 60 | 292 | 1.0 | 2.0 | 0.00 | 0.00 | 0.00 | 88 | 1016.5 |
| 20260509212338 | 60 | 0 | 0.0 | 0.0 | 0.00 | 0.00 | 0.00 | 88 | 1016.3 |
| 20260509211738 | 60 | 0 | 2.0 | 4.0 | 0.00 | 0.00 | 0.00 | 88 | 1016.4 |
| 20260509211544 | 60 | 22 | 2.0 | 2.0 | 0.00 | 0.00 | 0.00 | 88 | 1016.8 |
| 20260509211340 | 60 | 0 | 2.0 | 2.0 | 0.00 | 0.00 | 0.00 | 88 | 1016.8 |
| 20260509210938 | 60 | 338 | 0.0 | 2.0 | 0.00 | 0.00 | 0.00 | 88 | 1017.0 |
| 20260509210742 | 60 | 338 | 0.0 | 2.0 | 0.00 | 0.00 | 0.00 | 88 | 1016.9 |
| 20260509210542 | 60 | 315 | 0.0 | 0.0 | 0.00 | 0.00 | 0.00 | 88 | 1016.9 |
| 20260509210338 | 60 | 338 | 0.0 | 0.0 | 0.00 | 0.00 | 0.00 | 88 | 1017.1 |
| 20260509210137 | 60 | 22 | 1.0 | 2.0 | 0.00 | 0.00 | 0.00 | 88 | 1017.0 |
| 20260509205938 | 60 | 0 | 2.0 | 2.0 | 0.00 | 0.00 | 0.00 | 87 | 1016.9 |
| 20260509205544 | 60 | 0 | 0.0 | 2.0 | 0.00 | 0.00 | 0.00 | 87 | 1017.1 |
| 20260509205339 | 60 | 315 | 0.0 | 0.0 | 0.00 | 0.00 | 0.00 | 87 | 1017.1 |
| 20260509205138 | 60 | 338 | 0.0 | 0.0 | 0.00 | 0.00 | 0.00 | 87 | 1017.2 |
| 20260509204939 | 60 | 338 | 0.0 | 0.0 | 0.00 | 0.00 | 0.00 | 87 | 1017.2 |
| 20260509204737 | 60 | 0 | 0.0 | 0.0 | 0.00 | 0.00 | 0.00 | 87 | 1017.3 |
| 20260509204544 | 60 | 315 | 1.0 | 2.0 | 0.00 | 0.00 | 0.00 | 87 | 1017.4 |
| 20260509204338 | 60 | 315 | 2.0 | 2.0 | 0.00 | 0.00 | 0.00 | 87 | 1017.4 |
| 20260509204139 | 60 | 315 | 1.0 | 2.0 | 0.00 | 0.00 | 0.00 | 87 | 1017.3 |
| 20260509203938 | 60 | 0 | 1.0 | 2.0 | 0.00 | 0.00 | 0.00 | 86 | 1017.1 |
| 20260509203739 | 60 | 0 | 0.0 | 2.0 | 0.00 | 0.00 | 0.00 | 86 | 1017.2 |
| 20260509203542 | 60 | 338 | 1.0 | 2.0 | 0.00 | 0.00 | 0.00 | 86 | 1016.9 |
| 20260509203339 | 60 | 315 | 1.0 | 2.0 | 0.00 | 0.00 | 0.00 | 86 | 1017.1 |
| 20260509203137 | 60 | 315 | 1.0 | 2.0 | 0.00 | 0.00 | 0.00 | 85 | 1017.1 |
| 20260509202939 | 60 | 338 | 1.0 | 2.0 | 0.00 | 0.00 | 0.00 | 85 | 1017.3 |
| 20260509202738 | 60 | 315 | 1.0 | 2.0 | 0.00 | 0.00 | 0.00 | 85 | 1016.9 |
| 20260509202546 | 60 | 338 | 0.0 | 0.0 | 0.00 | 0.00 | 0.00 | 85 | 1017.2 |
| 20260509202138 | 60 | 338 | 2.0 | 2.0 | 0.00 | 0.00 | 0.00 | 84 | 1017.2 |
| 20260509201938 | 61 | 0 | 1.0 | 2.0 | 0.00 | 0.00 | 0.00 | 84 | 1017.3 |
| 20260509201545 | 61 | 315 | 1.0 | 2.0 | 0.00 | 0.00 | 0.00 | 84 | 1017.3 |
| 20260509201338 | 61 | 315 | 0.0 | 2.0 | 0.00 | 0.00 | 0.00 | 84 | 1017.2 |
| 20260509201139 | 61 | 270 | 0.0 | 0.0 | 0.00 | 0.00 | 0.00 | 84 | 1017.2 |
| 20260509200939 | 61 | 270 | 0.0 | 0.0 | 0.00 | 0.00 | 0.00 | 84 | 1017.3 |
| 20260509200738 | 61 | 270 | 0.0 | 0.0 | 0.00 | 0.00 | 0.00 | 84 | 1017.2 |
| 20260509200541 | 61 | 270 | 0.0 | 0.0 | 0.00 | 0.00 | 0.00 | 84 | 1017.4 |
| 20260509200340 | 61 | 270 | 0.0 | 0.0 | 0.00 | 0.00 | 0.00 | 84 | 1017.4 |
| 20260509200139 | 61 | 270 | 0.0 | 0.0 | 0.00 | 0.00 | 0.00 | 84 | 1017.3 |
| 20260509195738 | 61 | 270 | 0.0 | 0.0 | 0.00 | 0.00 | 0.00 | 84 | 1017.3 |
| 20260509195342 | 61 | 270 | 0.0 | 2.0 | 0.00 | 0.00 | 0.00 | 84 | 1017.3 |
| 20260509195139 | 61 | 225 | 0.0 | 0.0 | 0.00 | 0.00 | 0.00 | 84 | 1017.3 |
| 20260509194939 | 61 | 225 | 0.0 | 0.0 | 0.00 | 0.00 | 0.00 | 84 | 1017.0 |
| 20260509194738 | 61 | 225 | 0.0 | 0.0 | 0.00 | 0.00 | 0.00 | 84 | 1017.1 |
| 20260509194543 | 61 | 225 | 0.0 | 0.0 | 0.00 | 0.00 | 0.00 | 84 | 1017.3 |
| 20260509194338 | 61 | 270 | 0.0 | 0.0 | 0.00 | 0.00 | 0.00 | 85 | 1017.1 |
| 20260509194138 | 61 | 270 | 0.0 | 0.0 | 0.00 | 0.00 | 0.00 | 85 | 1017.1 |
| 20260509193939 | 61 | 270 | 0.0 | 0.0 | 0.00 | 0.00 | 0.00 | 85 | 1017.1 |
| 20260509193739 | 61 | 270 | 0.0 | 0.0 | 0.00 | 0.00 | 0.00 | 85 | 1016.9 |
| 20260509193339 | 61 | 270 | 0.0 | 0.0 | 0.00 | 0.00 | 0.00 | 85 | 1017.1 |
| 20260509193139 | 61 | 292 | 0.0 | 0.0 | 0.00 | 0.00 | 0.00 | 84 | 1017.1 |
| 20260509192938 | 61 | 292 | 1.0 | 2.0 | 0.00 | 0.00 | 0.00 | 84 | 1017.0 |
| 20260509192545 | 62 | 292 | 2.0 | 2.0 | 0.00 | 0.00 | 0.00 | 83 | 1017.0 |
| 20260509192138 | 62 | 292 | 0.0 | 0.0 | 0.00 | 0.00 | 0.00 | 82 | 1016.9 |
| 20260509191940 | 62 | 292 | 0.0 | 2.0 | 0.00 | 0.00 | 0.00 | 82 | 1016.9 |
| 20260509191739 | 63 | 315 | 0.0 | 2.0 | 0.00 | 0.00 | 0.00 | 82 | 1016.8 |
| 20260509191546 | 63 | 0 | 0.0 | 0.0 | 0.00 | 0.00 | 0.00 | 81 | 1016.8 |
| 20260509191338 | 63 | 0 | 0.0 | 2.0 | 0.00 | 0.00 | 0.00 | 81 | 1016.7 |
| 20260509191140 | 63 | 0 | 0.0 | 0.0 | 0.00 | 0.00 | 0.00 | 81 | 1016.8 |
| 20260509190939 | 63 | 0 | 0.0 | 2.0 | 0.00 | 0.00 | 0.00 | 81 | 1016.7 |
| 20260509190738 | 63 | 22 | 0.0 | 0.0 | 0.00 | 0.00 | 0.00 | 80 | 1016.8 |
| 20260509190543 | 63 | 45 | 0.0 | 2.0 | 0.00 | 0.00 | 0.00 | 80 | 1016.9 |
| 20260509190338 | 63 | 45 | 1.0 | 2.0 | 0.00 | 0.00 | 0.00 | 79 | 1016.6 |
| 20260509190138 | 63 | 45 | 2.0 | 2.0 | 0.00 | 0.00 | 0.00 | 79 | 1016.7 |
| 20260509185938 | 63 | 68 | 3.0 | 4.0 | 0.00 | 0.00 | 0.00 | 77 | 1016.7 |
| 20260509185544 | 63 | 90 | 2.0 | 4.0 | 0.00 | 0.00 | 0.00 | 75 | 1016.9 |
| 20260509185338 | 63 | 68 | 2.0 | 2.0 | 0.00 | 0.00 | 0.00 | 74 | 1016.8 |
| 20260509185139 | 63 | 68 | 2.0 | 2.0 | 0.00 | 0.00 | 0.00 | 74 | 1016.6 |
| 20260509184937 | 63 | 22 | 2.0 | 2.0 | 0.00 | 0.00 | 0.00 | 74 | 1016.7 |
| 20260509184738 | 63 | 45 | 2.0 | 4.0 | 0.00 | 0.00 | 0.00 | 74 | 1016.5 |
| 20260509184545 | 63 | 68 | 2.0 | 2.0 | 0.00 | 0.00 | 0.00 | 74 | 1016.7 |
| 20260509184337 | 63 | 68 | 2.0 | 4.0 | 0.00 | 0.00 | 0.00 | 74 | 1016.7 |
| 20260509184138 | 63 | 68 | 2.0 | 4.0 | 0.00 | 0.00 | 0.00 | 74 | 1016.6 |
| 20260509183939 | 64 | 45 | 3.0 | 4.0 | 0.00 | 0.00 | 0.00 | 73 | 1016.6 |
| 20260509183739 | 64 | 45 | 2.0 | 2.0 | 0.00 | 0.00 | 0.00 | 73 | 1016.7 |
| 20260509183546 | 64 | 22 | 3.0 | 4.0 | 0.00 | 0.00 | 0.00 | 73 | 1016.5 |
| 20260509183338 | 64 | 45 | 2.0 | 2.0 | 0.00 | 0.00 | 0.00 | 72 | 1016.5 |
| 20260509183139 | 64 | 0 | 1.0 | 2.0 | 0.00 | 0.00 | 0.00 | 72 | 1016.3 |
| 20260509182939 | 64 | 292 | 0.0 | 0.0 | 0.00 | 0.00 | 0.00 | 71 | 1016.6 |
| 20260509182739 | 64 | 270 | 0.0 | 0.0 | 0.00 | 0.00 | 0.00 | 71 | 1016.4 |
| 20260509182338 | 65 | 270 | 0.0 | 0.0 | 0.00 | 0.00 | 0.00 | 70 | 1016.2 |
| 20260509182139 | 65 | 270 | 0.0 | 0.0 | 0.00 | 0.00 | 0.00 | 69 | 1016.2 |
| 20260509181938 | 65 | 248 | 0.0 | 0.0 | 0.00 | 0.00 | 0.00 | 69 | 1016.4 |
| 20260509181739 | 65 | 248 | 0.0 | 0.0 | 0.00 | 0.00 | 0.00 | 68 | 1016.3 |
| 20260509181545 | 65 | 248 | 0.0 | 0.0 | 0.00 | 0.00 | 0.00 | 68 | 1016.2 |
| 20260509181339 | 65 | 248 | 0.0 | 0.0 | 0.00 | 0.00 | 0.00 | 67 | 1016.2 |
| 20260509181138 | 66 | 248 | 0.0 | 0.0 | 0.00 | 0.00 | 0.00 | 67 | 1016.2 |
| 20260509180959 | 66 | 248 | 0.0 | 2.0 | 0.00 | 0.00 | 0.00 | 66 | 1016.0 |
| 20260509180738 | 66 | 225 | 2.0 | 2.0 | 0.00 | 0.00 | 0.00 | 66 | 1015.9 |
| 20260509180601 | 66 | 225 | 0.0 | 2.0 | 0.00 | 0.00 | 0.00 | 66 | 1016.0 |
| 20260509180343 | 66 | 225 | 0.0 | 2.0 | 0.00 | 0.00 | 0.00 | 66 | 1015.9 |
| 20260509180137 | 66 | 225 | 0.0 | 2.0 | 0.00 | 0.00 | 0.00 | 66 | 1016.1 |
| 20260509175938 | 66 | 225 | 1.0 | 2.0 | 0.00 | 0.00 | 0.00 | 65 | 1015.8 |
| 20260509175741 | 66 | 225 | 1.0 | 2.0 | 0.00 | 0.00 | 0.00 | 66 | 1015.9 |
| 20260509175545 | 66 | 202 | 0.0 | 0.0 | 0.00 | 0.00 | 0.00 | 66 | 1015.9 |
| 20260509175138 | 66 | 225 | 1.0 | 2.0 | 0.00 | 0.00 | 0.00 | 65 | 1015.9 |
| 20260509174739 | 67 | 202 | 1.0 | 2.0 | 0.00 | 0.00 | 0.00 | 65 | 1016.1 |
| 20260509174543 | 67 | 225 | 1.0 | 2.0 | 0.00 | 0.00 | 0.00 | 64 | 1016.0 |
| 20260509174340 | 67 | 180 | 2.0 | 4.0 | 0.00 | 0.00 | 0.00 | 64 | 1015.9 |
| 20260509174140 | 67 | 158 | 2.0 | 4.0 | 0.00 | 0.00 | 0.00 | 64 | 1015.8 |
| 20260509173939 | 67 | 158 | 2.0 | 2.0 | 0.00 | 0.00 | 0.00 | 64 | 1015.6 |
| 20260509173737 | 67 | 202 | 2.0 | 4.0 | 0.00 | 0.00 | 0.00 | 64 | 1015.5 |
| 20260509173339 | 67 | 180 | 3.0 | 4.0 | 0.00 | 0.00 | 0.00 | 63 | 1015.6 |
| 20260509173138 | 68 | 202 | 2.0 | 2.0 | 0.00 | 0.00 | 0.00 | 63 | 1015.4 |
| 20260509172937 | 68 | 158 | 2.0 | 2.0 | 0.00 | 0.00 | 0.00 | 63 | 1015.7 |
| 20260509172738 | 68 | 158 | 1.0 | 2.0 | 0.00 | 0.00 | 0.00 | 63 | 1015.7 |
| 20260509172545 | 68 | 180 | 2.0 | 4.0 | 0.00 | 0.00 | 0.00 | 62 | 1015.7 |
| 20260509172339 | 69 | 225 | 2.0 | 2.0 | 0.00 | 0.00 | 0.00 | 61 | 1015.8 |
| 20260509172138 | 69 | 202 | 2.0 | 4.0 | 0.00 | 0.00 | 0.00 | 61 | 1015.6 |
| 20260509171938 | 69 | 180 | 2.0 | 4.0 | 0.00 | 0.00 | 0.00 | 60 | 1015.5 |
| 20260509171138 | 69 | 225 | 2.0 | 4.0 | 0.00 | 0.00 | 0.00 | 58 | 1015.6 |
| 20260509170737 | 70 | 158 | 3.0 | 4.0 | 0.00 | 0.00 | 0.00 | 58 | 1015.5 |
| 20260509170541 | 70 | 225 | 2.0 | 4.0 | 0.00 | 0.00 | 0.00 | 57 | 1015.5 |
| 20260509170338 | 70 | 158 | 4.0 | 6.0 | 0.00 | 0.00 | 0.00 | 57 | 1015.5 |
| 20260509170138 | 70 | 225 | 2.0 | 4.0 | 0.00 | 0.00 | 0.00 | 58 | 1015.6 |
| 20260509165939 | 70 | 248 | 2.0 | 4.0 | 0.00 | 0.00 | 0.00 | 59 | 1015.6 |
| 20260509165739 | 70 | 180 | 2.0 | 4.0 | 0.00 | 0.00 | 0.00 | 57 | 1015.4 |
| 20260509165545 | 71 | 225 | 2.0 | 4.0 | 0.00 | 0.00 | 0.00 | 58 | 1015.5 |
| 20260509165338 | 71 | 158 | 2.0 | 4.0 | 0.00 | 0.00 | 0.00 | 57 | 1015.4 |
| 20260509165138 | 71 | 180 | 3.0 | 4.0 | 0.00 | 0.00 | 0.00 | 56 | 1015.5 |
| 20260509164939 | 71 | 180 | 3.0 | 7.0 | 0.00 | 0.00 | 0.00 | 56 | 1015.4 |
| 20260509164738 | 71 | 158 | 4.0 | 4.0 | 0.00 | 0.00 | 0.00 | 56 | 1015.4 |
| 20260509164339 | 71 | 158 | 4.0 | 6.0 | 0.00 | 0.00 | 0.00 | 55 | 1015.5 |
| 20260509164138 | 71 | 180 | 3.0 | 6.0 | 0.00 | 0.00 | 0.00 | 54 | 1015.3 |
| 20260509163944 | 71 | 180 | 4.0 | 4.0 | 0.00 | 0.00 | 0.00 | 55 | 1015.4 |
| 20260509163744 | 71 | 180 | 4.0 | 6.0 | 0.00 | 0.00 | 0.00 | 54 | 1015.5 |
| 20260509162938 | 72 | 180 | 4.0 | 6.0 | 0.00 | 0.00 | 0.00 | 54 | 1015.4 |
| 20260509162738 | 72 | 180 | 4.0 | 6.0 | 0.00 | 0.00 | 0.00 | 53 | 1015.5 |
| 20260509162544 | 72 | 180 | 4.0 | 7.0 | 0.00 | 0.00 | 0.00 | 53 | 1015.6 |
| 20260509162139 | 72 | 158 | 6.0 | 9.0 | 0.00 | 0.00 | 0.00 | 53 | 1015.3 |
| 20260509161939 | 72 | 158 | 4.0 | 6.0 | 0.00 | 0.00 | 0.00 | 54 | 1015.4 |
| 20260509161739 | 72 | 225 | 3.0 | 7.0 | 0.00 | 0.00 | 0.00 | 53 | 1015.2 |
| 20260509161546 | 72 | 225 | 4.0 | 7.0 | 0.00 | 0.00 | 0.00 | 53 | 1015.4 |
| 20260509161338 | 72 | 158 | 3.0 | 6.0 | 0.00 | 0.00 | 0.00 | 53 | 1015.5 |
| 20260509161138 | 72 | 225 | 4.0 | 6.0 | 0.00 | 0.00 | 0.00 | 53 | 1015.6 |
| 20260509160938 | 72 | 202 | 4.0 | 6.0 | 0.00 | 0.00 | 0.00 | 53 | 1015.5 |
| 20260509160739 | 72 | 248 | 4.0 | 9.0 | 0.00 | 0.00 | 0.00 | 51 | 1015.5 |
| 20260509160541 | 72 | 248 | 5.0 | 11.0 | 0.00 | 0.00 | 0.00 | 52 | 1015.7 |
| 20260509160337 | 72 | 202 | 4.0 | 7.0 | 0.00 | 0.00 | 0.00 | 52 | 1015.5 |
| 20260509160138 | 72 | 180 | 5.0 | 9.0 | 0.00 | 0.00 | 0.00 | 52 | 1015.5 |
| 20260509155941 | 72 | 158 | 5.0 | 8.0 | 0.00 | 0.00 | 0.00 | 52 | 1015.5 |
| 20260509155739 | 72 | 158 | 4.0 | 7.0 | 0.00 | 0.00 | 0.00 | 51 | 1015.3 |
| 20260509155544 | 72 | 158 | 4.0 | 6.0 | 0.00 | 0.00 | 0.00 | 51 | 1015.5 |
| 20260509155338 | 72 | 158 | 4.0 | 7.0 | 0.00 | 0.00 | 0.00 | 50 | 1015.5 |
| 20260509155138 | 72 | 180 | 4.0 | 6.0 | 0.00 | 0.00 | 0.00 | 51 | 1015.6 |
| 20260509154938 | 72 | 180 | 4.0 | 6.0 | 0.00 | 0.00 | 0.00 | 50 | 1015.4 |
| 20260509154545 | 73 | 180 | 5.0 | 8.0 | 0.00 | 0.00 | 0.00 | 48 | 1015.4 |
| 20260509154138 | 72 | 202 | 3.0 | 4.0 | 0.00 | 0.00 | 0.00 | 50 | 1015.5 |
| 20260509153937 | 72 | 202 | 4.0 | 6.0 | 0.00 | 0.00 | 0.00 | 49 | 1015.5 |
| 20260509153737 | 73 | 180 | 6.0 | 9.0 | 0.00 | 0.00 | 0.00 | 49 | 1015.5 |
| 20260509153542 | 73 | 202 | 4.0 | 7.0 | 0.00 | 0.00 | 0.00 | 49 | 1015.5 |
| 20260509153338 | 72 | 158 | 4.0 | 6.0 | 0.00 | 0.00 | 0.00 | 50 | 1015.5 |
| 20260509153141 | 72 | 180 | 4.0 | 7.0 | 0.00 | 0.00 | 0.00 | 50 | 1015.5 |
| 20260509152940 | 73 | 180 | 8.0 | 11.0 | 0.00 | 0.00 | 0.00 | 50 | 1015.6 |
| 20260509152739 | 73 | 135 | 4.0 | 6.0 | 0.00 | 0.00 | 0.00 | 50 | 1015.6 |
| 20260509152544 | 73 | 158 | 4.0 | 7.0 | 0.00 | 0.00 | 0.00 | 50 | 1015.4 |
| 20260509152138 | 73 | 90 | 4.0 | 4.0 | 0.00 | 0.00 | 0.00 | 49 | 1015.6 |
| 20260509151940 | 73 | 112 | 4.0 | 6.0 | 0.00 | 0.00 | 0.00 | 50 | 1015.5 |
| 20260509151738 | 73 | 135 | 2.0 | 4.0 | 0.00 | 0.00 | 0.00 | 51 | 1015.4 |
| 20260509151545 | 74 | 112 | 4.0 | 6.0 | 0.00 | 0.00 | 0.00 | 48 | 1015.6 |
| 20260509151340 | 74 | 112 | 3.0 | 6.0 | 0.00 | 0.00 | 0.00 | 50 | 1015.6 |
| 20260509151138 | 74 | 135 | 4.0 | 8.0 | 0.00 | 0.00 | 0.00 | 49 | 1015.4 |
| 20260509150939 | 74 | 135 | 3.0 | 7.0 | 0.00 | 0.00 | 0.00 | 48 | 1015.6 |
| 20260509150544 | 74 | 158 | 4.0 | 7.0 | 0.00 | 0.00 | 0.00 | 49 | 1015.3 |
| 20260509150338 | 74 | 158 | 2.0 | 4.0 | 0.00 | 0.00 | 0.00 | 50 | 1015.6 |
| 20260509145938 | 74 | 135 | 4.0 | 7.0 | 0.00 | 0.00 | 0.00 | 50 | 1015.4 |
| 20260509145738 | 74 | 158 | 4.0 | 7.0 | 0.00 | 0.00 | 0.00 | 51 | 1015.8 |
| 20260509145545 | 74 | 158 | 4.0 | 6.0 | 0.00 | 0.00 | 0.00 | 51 | 1015.6 |
| 20260509145338 | 74 | 158 | 4.0 | 7.0 | 0.00 | 0.00 | 0.00 | 50 | 1015.7 |
| 20260509145138 | 74 | 135 | 2.0 | 4.0 | 0.00 | 0.00 | 0.00 | 52 | 1015.8 |
| 20260509144940 | 74 | 158 | 5.0 | 8.0 | 0.00 | 0.00 | 0.00 | 51 | 1015.7 |
| 20260509144738 | 74 | 158 | 2.0 | 4.0 | 0.00 | 0.00 | 0.00 | 52 | 1015.9 |
| 20260509144544 | 74 | 248 | 2.0 | 4.0 | 0.00 | 0.00 | 0.00 | 52 | 1015.8 |
| 20260509144338 | 74 | 180 | 2.0 | 4.0 | 0.00 | 0.00 | 0.00 | 52 | 1015.7 |
| 20260509144137 | 74 | 248 | 3.0 | 4.0 | 0.00 | 0.00 | 0.00 | 52 | 1015.6 |
| 20260509143938 | 74 | 158 | 4.0 | 6.0 | 0.00 | 0.00 | 0.00 | 52 | 1015.8 |
| 20260509143737 | 74 | 202 | 3.0 | 4.0 | 0.00 | 0.00 | 0.00 | 53 | 1015.7 |
| 20260509143540 | 73 | 158 | 3.0 | 4.0 | 0.00 | 0.00 | 0.00 | 54 | 1015.9 |
| 20260509143139 | 72 | 180 | 4.0 | 8.0 | 0.00 | 0.00 | 0.00 | 53 | 1015.8 |
| 20260509142938 | 73 | 225 | 4.0 | 6.0 | 0.00 | 0.00 | 0.00 | 54 | 1015.7 |
| 20260509142545 | 73 | 225 | 4.0 | 7.0 | 0.00 | 0.00 | 0.00 | 54 | 1015.5 |
| 20260509142138 | 73 | 158 | 7.0 | 9.0 | 0.00 | 0.00 | 0.00 | 54 | 1015.6 |
| 20260509141939 | 73 | 135 | 6.0 | 9.0 | 0.00 | 0.00 | 0.00 | 53 | 1015.6 |
| 20260509141739 | 73 | 158 | 4.0 | 7.0 | 0.00 | 0.00 | 0.00 | 55 | 1015.7 |
| 20260509141543 | 73 | 158 | 5.0 | 7.0 | 0.00 | 0.00 | 0.00 | 55 | 1015.8 |
| 20260509141339 | 73 | 158 | 5.0 | 8.0 | 0.00 | 0.00 | 0.00 | 56 | 1015.6 |
| 20260509141138 | 73 | 180 | 6.0 | 11.0 | 0.00 | 0.00 | 0.00 | 56 | 1015.6 |
| 20260509140739 | 74 | 180 | 5.0 | 9.0 | 0.00 | 0.00 | 0.00 | 58 | 1015.7 |
| 20260509140543 | 74 | 158 | 4.0 | 6.0 | 0.00 | 0.00 | 0.00 | 55 | 1015.8 |
| 20260509140339 | 74 | 158 | 6.0 | 8.0 | 0.00 | 0.00 | 0.00 | 56 | 1015.6 |
| 20260509140140 | 73 | 135 | 4.0 | 7.0 | 0.00 | 0.00 | 0.00 | 59 | 1015.7 |
| 20260509135939 | 74 | 158 | 6.0 | 9.0 | 0.00 | 0.00 | 0.00 | 57 | 1015.8 |
| 20260509135737 | 74 | 135 | 6.0 | 9.0 | 0.00 | 0.00 | 0.00 | 57 | 1015.6 |
| 20260509135544 | 74 | 180 | 3.0 | 6.0 | 0.00 | 0.00 | 0.00 | 55 | 1015.6 |
| 20260509135338 | 74 | 135 | 4.0 | 6.0 | 0.00 | 0.00 | 0.00 | 55 | 1015.6 |
| 20260509135143 | 74 | 158 | 6.0 | 8.0 | 0.00 | 0.00 | 0.00 | 55 | 1015.5 |
| 20260509134737 | 74 | 180 | 4.0 | 9.0 | 0.00 | 0.00 | 0.00 | 56 | 1015.7 |
| 20260509134544 | 74 | 180 | 5.0 | 9.0 | 0.00 | 0.00 | 0.00 | 54 | 1015.5 |
| 20260509134339 | 74 | 135 | 4.0 | 7.0 | 0.00 | 0.00 | 0.00 | 54 | 1015.6 |
| 20260509134139 | 74 | 158 | 4.0 | 6.0 | 0.00 | 0.00 | 0.00 | 55 | 1015.5 |
| 20260509133939 | 74 | 180 | 8.0 | 11.0 | 0.00 | 0.00 | 0.00 | 53 | 1015.4 |
| 20260509133540 | 74 | 338 | 4.0 | 7.0 | 0.00 | 0.00 | 0.00 | 54 | 1015.3 |
| 20260509133340 | 74 | 112 | 5.0 | 9.0 | 0.00 | 0.00 | 0.00 | 53 | 1015.5 |
| 20260509133139 | 75 | 180 | 6.0 | 11.0 | 0.00 | 0.00 | 0.00 | 52 | 1015.4 |
| 20260509132939 | 75 | 180 | 5.0 | 9.0 | 0.00 | 0.00 | 0.00 | 53 | 1015.4 |
| 20260509132546 | 75 | 158 | 5.0 | 9.0 | 0.00 | 0.00 | 0.00 | 52 | 1015.5 |
| 20260509132338 | 76 | 135 | 4.0 | 7.0 | 0.00 | 0.00 | 0.00 | 52 | 1015.5 |
| 20260509132139 | 76 | 135 | 5.0 | 8.0 | 0.00 | 0.00 | 0.00 | 52 | 1015.5 |
| 20260509131939 | 76 | 135 | 4.0 | 7.0 | 0.00 | 0.00 | 0.00 | 52 | 1015.7 |
| 20260509131739 | 76 | 135 | 4.0 | 6.0 | 0.00 | 0.00 | 0.00 | 53 | 1015.4 |
| 20260509131544 | 75 | 158 | 6.0 | 9.0 | 0.00 | 0.00 | 0.00 | 54 | 1015.7 |
| 20260509130938 | 76 | 180 | 4.0 | 6.0 | 0.00 | 0.00 | 0.00 | 52 | 1015.8 |
| 20260509130738 | 76 | 248 | 4.0 | 7.0 | 0.00 | 0.00 | 0.00 | 51 | 1015.7 |
| 20260509130539 | 76 | 158 | 4.0 | 7.0 | 0.00 | 0.00 | 0.00 | 53 | 1015.7 |
| 20260509130339 | 75 | 202 | 3.0 | 4.0 | 0.00 | 0.00 | 0.00 | 53 | 1015.5 |
| 20260509130138 | 75 | 248 | 4.0 | 6.0 | 0.00 | 0.00 | 0.00 | 53 | 1015.6 |
| 20260509125938 | 75 | 158 | 4.0 | 7.0 | 0.00 | 0.00 | 0.00 | 53 | 1015.9 |
| 20260509125737 | 75 | 135 | 5.0 | 8.0 | 0.00 | 0.00 | 0.00 | 54 | 1015.7 |
| 20260509125544 | 75 | 158 | 6.0 | 8.0 | 0.00 | 0.00 | 0.00 | 52 | 1015.8 |
| 20260509125338 | 75 | 158 | 5.0 | 8.0 | 0.00 | 0.00 | 0.00 | 55 | 1016.0 |
| 20260509125137 | 75 | 135 | 4.0 | 8.0 | 0.00 | 0.00 | 0.00 | 55 | 1015.8 |
| 20260509124940 | 74 | 135 | 4.0 | 7.0 | 0.00 | 0.00 | 0.00 | 56 | 1015.8 |
| 20260509124545 | 75 | 180 | 5.0 | 8.0 | 0.00 | 0.00 | 0.00 | 56 | 1015.8 |
| 20260509124337 | 75 | 180 | 5.0 | 8.0 | 0.00 | 0.00 | 0.00 | 54 | 1015.8 |
| 20260509124137 | 75 | 158 | 4.0 | 8.0 | 0.00 | 0.00 | 0.00 | 54 | 1015.8 |
| 20260509123940 | 75 | 90 | 7.0 | 11.0 | 0.00 | 0.00 | 0.00 | 57 | 1015.8 |
| 20260509123739 | 75 | 202 | 6.0 | 11.0 | 0.00 | 0.00 | 0.00 | 56 | 1015.9 |
| 20260509123542 | 75 | 202 | 3.0 | 4.0 | 0.00 | 0.00 | 0.00 | 54 | 1016.1 |
| 20260509123339 | 75 | 180 | 7.0 | 9.0 | 0.00 | 0.00 | 0.00 | 54 | 1015.8 |
| 20260509123137 | 76 | 248 | 5.0 | 7.0 | 0.00 | 0.00 | 0.00 | 54 | 1016.0 |
| 20260509122739 | 75 | 0 | 3.0 | 6.0 | 0.00 | 0.00 | 0.00 | 55 | 1016.0 |
| 20260509122544 | 75 | 180 | 4.0 | 7.0 | 0.00 | 0.00 | 0.00 | 56 | 1015.9 |
| 20260509122340 | 75 | 158 | 4.0 | 7.0 | 0.00 | 0.00 | 0.00 | 55 | 1016.1 |
| 20260509122139 | 75 | 135 | 4.0 | 7.0 | 0.00 | 0.00 | 0.00 | 57 | 1016.0 |
| 20260509121938 | 75 | 158 | 4.0 | 6.0 | 0.00 | 0.00 | 0.00 | 57 | 1016.0 |
| 20260509121738 | 74 | 202 | 5.0 | 8.0 | 0.00 | 0.00 | 0.00 | 57 | 1015.8 |
| 20260509121545 | 75 | 180 | 3.0 | 4.0 | 0.00 | 0.00 | 0.00 | 57 | 1015.9 |
| 20260509121339 | 75 | 202 | 5.0 | 7.0 | 0.00 | 0.00 | 0.00 | 56 | 1015.9 |
| 20260509121141 | 75 | 180 | 5.0 | 8.0 | 0.00 | 0.00 | 0.00 | 57 | 1016.0 |
| 20260509120739 | 75 | 202 | 4.0 | 6.0 | 0.00 | 0.00 | 0.00 | 57 | 1015.9 |
| 20260509120338 | 75 | 202 | 5.0 | 8.0 | 0.00 | 0.00 | 0.00 | 57 | 1016.0 |
| 20260509120138 | 75 | 202 | 5.0 | 8.0 | 0.00 | 0.00 | 0.00 | 57 | 1015.9 |
| 20260509115938 | 75 | 158 | 4.0 | 7.0 | 0.00 | 0.00 | 0.00 | 57 | 1016.0 |
| 20260509115544 | 75 | 202 | 5.0 | 7.0 | 0.00 | 0.00 | 0.00 | 56 | 1016.2 |
| 20260509115138 | 74 | 202 | 2.0 | 4.0 | 0.00 | 0.00 | 0.00 | 58 | 1016.3 |
| 20260509114938 | 74 | 135 | 6.0 | 11.0 | 0.00 | 0.00 | 0.00 | 56 | 1016.1 |
| 20260509114740 | 74 | 202 | 6.0 | 8.0 | 0.00 | 0.00 | 0.00 | 58 | 1016.1 |
| 20260509114542 | 75 | 180 | 6.0 | 9.0 | 0.00 | 0.00 | 0.00 | 57 | 1016.2 |
| 20260509114338 | 75 | 158 | 6.0 | 8.0 | 0.00 | 0.00 | 0.00 | 57 | 1016.3 |
| 20260509114138 | 74 | 248 | 3.0 | 7.0 | 0.00 | 0.00 | 0.00 | 58 | 1016.2 |
| 20260509113942 | 74 | 158 | 2.0 | 4.0 | 0.00 | 0.00 | 0.00 | 58 | 1016.3 |
| 20260509113738 | 74 | 158 | 6.0 | 11.0 | 0.00 | 0.00 | 0.00 | 58 | 1016.2 |
| 20260509113337 | 74 | 112 | 8.0 | 11.0 | 0.00 | 0.00 | 0.00 | 58 | 1016.3 |
| 20260509113139 | 74 | 112 | 5.0 | 8.0 | 0.00 | 0.00 | 0.00 | 58 | 1016.2 |
| 20260509112938 | 74 | 202 | 4.0 | 8.0 | 0.00 | 0.00 | 0.00 | 59 | 1016.2 |
| 20260509112544 | 74 | 158 | 8.0 | 9.0 | 0.00 | 0.00 | 0.00 | 60 | 1016.3 |
| 20260509112337 | 74 | 202 | 6.0 | 8.0 | 0.00 | 0.00 | 0.00 | 60 | 1016.2 |
| 20260509112138 | 74 | 180 | 4.0 | 6.0 | 0.00 | 0.00 | 0.00 | 59 | 1016.2 |
| 20260509111738 | 74 | 135 | 4.0 | 4.0 | 0.00 | 1.07 | 0.00 | 60 | 1016.2 |
| 20260509111544 | 74 | 90 | 4.0 | 8.0 | 0.00 | 0.00 | 0.00 | 61 | 1016.4 |
| 20260509111139 | 74 | 158 | 7.0 | 11.0 | 0.00 | 0.00 | 0.00 | 58 | 1016.2 |
| 20260509110940 | 74 | 180 | 5.0 | 9.0 | 0.00 | 0.00 | 0.00 | 61 | 1016.2 |
| 20260509110738 | 74 | 202 | 5.0 | 9.0 | 0.00 | 0.00 | 0.00 | 57 | 1016.3 |
| 20260509110541 | 74 | 180 | 4.0 | 7.0 | 0.00 | 0.00 | 0.00 | 60 | 1016.4 |
| 20260509110138 | 74 | 180 | 7.0 | 11.0 | 0.00 | 0.00 | 0.00 | 60 | 1016.2 |
| 20260509105937 | 74 | 180 | 7.0 | 8.0 | 0.00 | 0.00 | 0.00 | 59 | 1016.4 |
| 20260509105341 | 75 | 180 | 4.0 | 7.0 | 0.00 | 0.00 | 0.00 | 58 | 1016.4 |
| 20260509104937 | 74 | 158 | 5.0 | 8.0 | 0.00 | 0.00 | 0.00 | 54 | 1016.2 |
| 20260509104739 | 74 | 158 | 4.0 | 6.0 | 0.00 | 0.00 | 0.00 | 57 | 1016.3 |
| 20260509104545 | 74 | 158 | 4.0 | 7.0 | 0.00 | 0.00 | 0.00 | 56 | 1016.3 |
| 20260509104338 | 74 | 158 | 4.0 | 8.0 | 0.00 | 0.00 | 0.00 | 59 | 1016.2 |
| 20260509104138 | 74 | 135 | 4.0 | 7.0 | 0.00 | 0.00 | 0.00 | 60 | 1016.3 |
| 20260509103940 | 74 | 180 | 4.0 | 8.0 | 0.00 | 0.00 | 0.00 | 61 | 1016.4 |
| 20260509103738 | 73 | 158 | 4.0 | 8.0 | 0.00 | 0.00 | 0.00 | 62 | 1016.3 |
| 20260509103543 | 73 | 135 | 5.0 | 7.0 | 0.00 | 0.00 | 0.00 | 62 | 1016.5 |
| 20260509103340 | 73 | 158 | 4.0 | 9.0 | 0.00 | 0.00 | 0.00 | 60 | 1016.3 |
| 20260509103139 | 73 | 202 | 4.0 | 6.0 | 0.00 | 0.00 | 0.00 | 60 | 1016.2 |
| 20260509102739 | 72 | 135 | 6.0 | 9.0 | 0.00 | 0.00 | 0.00 | 60 | 1016.4 |
| 20260509102543 | 72 | 112 | 4.0 | 6.0 | 0.00 | 0.00 | 0.00 | 61 | 1016.2 |
| 20260509102339 | 72 | 180 | 4.0 | 8.0 | 0.00 | 0.00 | 0.00 | 61 | 1016.4 |
| 20260509102139 | 72 | 135 | 3.0 | 4.0 | 0.00 | 0.00 | 0.00 | 62 | 1016.4 |
| 20260509101543 | 73 | 135 | 5.0 | 8.0 | 0.00 | 0.00 | 0.00 | 62 | 1016.4 |
| 20260509101338 | 73 | 112 | 4.0 | 8.0 | 0.00 | 0.00 | 0.00 | 62 | 1016.4 |
| 20260509101138 | 74 | 135 | 4.0 | 7.0 | 0.00 | 0.00 | 0.00 | 63 | 1016.5 |
| 20260509100942 | 74 | 112 | 4.0 | 8.0 | 0.00 | 0.00 | 0.00 | 61 | 1016.5 |
| 20260509100542 | 74 | 158 | 4.0 | 7.0 | 0.00 | 0.00 | 0.00 | 60 | 1016.4 |
| 20260509100338 | 73 | 180 | 4.0 | 6.0 | 0.00 | 0.00 | 0.00 | 61 | 1016.4 |
| 20260509100140 | 73 | 90 | 4.0 | 7.0 | 0.00 | 0.00 | 0.00 | 61 | 1016.6 |
| 20260509095939 | 73 | 90 | 4.0 | 6.0 | 0.00 | 0.00 | 0.00 | 60 | 1016.4 |
| 20260509095738 | 73 | 135 | 4.0 | 7.0 | 0.00 | 0.00 | 0.00 | 61 | 1016.5 |
| 20260509095544 | 73 | 135 | 4.0 | 6.0 | 0.00 | 0.00 | 0.00 | 61 | 1016.6 |
| 20260509095339 | 72 | 112 | 4.0 | 6.0 | 0.00 | 0.00 | 0.00 | 59 | 1016.4 |
| 20260509095138 | 72 | 158 | 4.0 | 6.0 | 0.00 | 0.00 | 0.00 | 60 | 1016.3 |
| 20260509094938 | 73 | 112 | 5.0 | 9.0 | 0.00 | 0.00 | 0.00 | 62 | 1016.6 |
| 20260509094738 | 73 | 158 | 5.0 | 8.0 | 0.00 | 0.00 | 0.00 | 61 | 1016.2 |
| 20260509094340 | 72 | 158 | 3.0 | 6.0 | 0.00 | 0.00 | 0.00 | 64 | 1016.4 |
| 20260509094137 | 72 | 90 | 5.0 | 9.0 | 0.00 | 0.00 | 0.00 | 61 | 1016.3 |
| 20260509093941 | 72 | 135 | 4.0 | 6.0 | 0.00 | 0.00 | 0.00 | 63 | 1016.4 |
| 20260509093542 | 73 | 180 | 5.0 | 9.0 | 0.00 | 0.00 | 0.00 | 62 | 1016.4 |
| 20260509093338 | 73 | 112 | 4.0 | 7.0 | 0.00 | 0.00 | 0.00 | 63 | 1016.4 |
| 20260509093138 | 73 | 135 | 2.0 | 4.0 | 0.00 | 0.00 | 0.00 | 63 | 1016.3 |
| 20260509092938 | 72 | 225 | 2.0 | 4.0 | 0.00 | 0.00 | 0.00 | 63 | 1016.3 |
| 20260509092739 | 72 | 135 | 6.0 | 8.0 | 0.00 | 0.00 | 0.00 | 62 | 1016.3 |
| 20260509092546 | 72 | 135 | 2.0 | 4.0 | 0.00 | 0.00 | 0.00 | 60 | 1016.2 |
| 20260509092337 | 72 | 135 | 4.0 | 6.0 | 0.00 | 0.00 | 0.00 | 62 | 1016.1 |
| 20260509092140 | 72 | 90 | 4.0 | 4.0 | 0.00 | 0.00 | 0.00 | 61 | 1016.2 |
| 20260509091939 | 74 | 135 | 4.0 | 7.0 | 0.00 | 0.00 | 0.00 | 62 | 1016.3 |
| 20260509091738 | 74 | 112 | 2.0 | 4.0 | 0.00 | 0.00 | 0.00 | 60 | 1016.3 |
| 20260509091546 | 73 | 90 | 2.0 | 4.0 | 0.00 | 0.00 | 0.00 | 61 | 1016.4 |
| 20260509091138 | 73 | 135 | 4.0 | 7.0 | 0.00 | 0.01 | 0.00 | 61 | 1016.3 |
| 20260509090939 | 74 | 112 | 4.0 | 7.0 | 0.00 | 0.01 | 0.00 | 60 | 1016.3 |
| 20260509090546 | 74 | 68 | 2.0 | 4.0 | 0.00 | 0.01 | 0.00 | 49 | 1016.1 |
| 20260509090339 | 74 | 22 | 2.0 | 4.0 | 0.00 | 0.01 | 0.00 | 50 | 1016.2 |
| 20260509090137 | 73 | 22 | 2.0 | 4.0 | 0.00 | 0.02 | 0.00 | 49 | 1016.3 |
| 20260509085939 | 73 | 68 | 3.0 | 6.0 | 0.00 | 0.02 | 0.00 | 52 | 1016.3 |
| 20260509085738 | 74 | 270 | 2.0 | 4.0 | 0.00 | 0.02 | 0.00 | 49 | 1016.2 |
| 20260509085545 | 74 | 338 | 3.0 | 4.0 | 0.00 | 0.02 | 0.00 | 52 | 1016.4 |
| 20260509085339 | 74 | 338 | 3.0 | 6.0 | 0.00 | 0.03 | 0.00 | 49 | 1016.4 |
| 20260509085138 | 74 | 248 | 2.0 | 2.0 | 0.00 | 0.03 | 0.00 | 49 | 1016.5 |
| 20260509084938 | 74 | 22 | 2.0 | 4.0 | 0.00 | 0.03 | 0.00 | 50 | 1016.3 |
| 20260509084545 | 74 | 315 | 3.0 | 4.0 | 0.00 | 0.04 | 0.00 | 51 | 1016.5 |
| 20260509084339 | 74 | 45 | 1.0 | 2.0 | 0.00 | 0.04 | 0.00 | 49 | 1016.5 |
| 20260509084137 | 74 | 292 | 2.0 | 4.0 | 0.00 | 0.04 | 0.00 | 47 | 1016.4 |
| 20260509083940 | 73 | 158 | 2.0 | 4.0 | 0.00 | 0.04 | 0.00 | 46 | 1016.4 |
| 20260509083738 | 73 | 22 | 4.0 | 8.0 | 0.00 | 0.05 | 0.00 | 48 | 1016.4 |
| 20260509083542 | 74 | 292 | 2.0 | 4.0 | 0.00 | 0.05 | 0.00 | 49 | 1016.5 |
| 20260509083339 | 74 | 338 | 2.0 | 4.0 | 0.00 | 0.05 | 0.00 | 46 | 1016.5 |
| 20260509082939 | 74 | 22 | 2.0 | 4.0 | 0.00 | 0.07 | 0.00 | 51 | 1016.2 |
| 20260509082738 | 74 | 292 | 1.0 | 2.0 | 0.00 | 0.07 | 0.00 | 49 | 1016.4 |
| 20260509082544 | 74 | 338 | 2.0 | 2.0 | 0.00 | 0.08 | 0.00 | 49 | 1016.4 |
| 20260509082339 | 74 | 315 | 2.0 | 4.0 | 0.00 | 0.08 | 0.00 | 51 | 1016.3 |
| 20260509082138 | 73 | 292 | 0.0 | 2.0 | 0.00 | 0.09 | 0.00 | 48 | 1016.6 |
| 20260509081939 | 73 | 292 | 2.0 | 4.0 | 0.00 | 0.09 | 0.00 | 49 | 1016.5 |
| 20260509081740 | 73 | 158 | 2.0 | 4.0 | 0.00 | 0.09 | 0.00 | 49 | 1016.5 |
| 20260509081338 | 73 | 292 | 1.0 | 2.0 | 0.00 | 0.10 | 0.00 | 54 | 1016.5 |
| 20260509081138 | 72 | 45 | 1.0 | 6.0 | 0.00 | 0.11 | 0.00 | 56 | 1016.5 |
| 20260509080940 | 72 | 112 | 2.0 | 4.0 | 0.00 | 0.11 | 0.00 | 57 | 1016.5 |
| 20260509080737 | 73 | 292 | 2.0 | 2.0 | 0.00 | 0.12 | 0.00 | 57 | 1016.6 |
| 20260509080541 | 73 | 315 | 2.0 | 2.0 | 0.00 | 0.12 | 0.00 | 58 | 1016.4 |
| 20260509080338 | 72 | 135 | 1.0 | 2.0 | 0.00 | 0.14 | 0.00 | 59 | 1016.6 |
| 20260509075940 | 73 | 338 | 1.0 | 4.0 | 0.00 | 0.14 | 0.00 | 60 | 1016.5 |
| 20260509075739 | 74 | 315 | 2.0 | 4.0 | 0.00 | 0.15 | 0.00 | 58 | 1016.6 |
| 20260509075339 | 73 | 225 | 1.0 | 2.0 | 0.00 | 0.16 | 0.00 | 59 | 1016.7 |
| 20260509075138 | 72 | 338 | 0.0 | 0.0 | 0.00 | 0.17 | 0.00 | 60 | 1016.5 |
| 20260509074939 | 71 | 270 | 1.0 | 2.0 | 0.00 | 0.18 | 0.00 | 61 | 1016.6 |
| 20260509074739 | 71 | 270 | 2.0 | 2.0 | 0.00 | 0.18 | 0.00 | 61 | 1016.8 |
| 20260509074543 | 70 | 315 | 0.0 | 2.0 | 0.00 | 0.21 | 0.00 | 63 | 1016.7 |
| 20260509074338 | 70 | 292 | 1.0 | 2.0 | 0.00 | 0.21 | 0.00 | 65 | 1016.7 |
| 20260509073941 | 70 | 315 | 3.0 | 4.0 | 0.00 | 0.23 | 0.00 | 64 | 1016.6 |
| 20260509073738 | 70 | 292 | 1.0 | 2.0 | 0.00 | 0.24 | 0.00 | 65 | 1016.6 |
| 20260509073553 | 69 | 248 | 2.0 | 4.0 | 0.00 | 0.25 | 0.00 | 66 | 1016.5 |
| 20260509073338 | 69 | 248 | 2.0 | 4.0 | 0.00 | 0.27 | 0.00 | 67 | 1016.7 |
| 20260509073139 | 69 | 270 | 2.0 | 4.0 | 0.00 | 0.30 | 0.00 | 66 | 1016.6 |
| 20260509072939 | 69 | 225 | 2.0 | 4.0 | 0.00 | 0.31 | 0.00 | 66 | 1016.6 |
| 20260509072737 | 69 | 292 | 2.0 | 4.0 | 0.00 | 0.31 | 0.00 | 65 | 1016.7 |
| 20260509072543 | 69 | 248 | 1.0 | 2.0 | 0.00 | 0.31 | 0.00 | 65 | 1016.7 |
| 20260509072338 | 68 | 180 | 2.0 | 2.0 | 0.00 | 0.34 | 0.00 | 66 | 1016.5 |
| 20260509072138 | 68 | 202 | 2.0 | 4.0 | 0.00 | 0.34 | 0.00 | 67 | 1016.7 |
| 20260509071738 | 67 | 315 | 2.0 | 4.0 | 0.00 | 1.07 | 0.00 | 67 | 1016.5 |
| 20260509071543 | 67 | 270 | 3.0 | 4.0 | 0.00 | 0.37 | 0.00 | 68 | 1016.6 |
| 20260509071337 | 67 | 248 | 4.0 | 7.0 | 0.00 | 0.38 | 0.00 | 68 | 1016.6 |